RYR385 LPPT-LPMA

Flight info

Callsign RYR385
Flight time 1h 24m
Altitude 33000
Route ULVOT DCT GALPA DCT RAKUN
Aircraft B738/M-SDE2E3FGHIRWXY/LB1

Departure

Time 2026-05-07 12:39
Airport Lisbon Humberto Delgado Airport (LPPT)

Arrival

Time 2026-05-07 14:04
Airport Cristiano Ronaldo International Airport (LPMA)
Time Latitude Longitude Altitude Speed Heading
2026-05-07 12:14 38.76453 -9.13781 353 ft 0 kts 168°
2026-05-07 12:30 38.76457 -9.13782 357 ft 3 kts 168°
2026-05-07 12:31 38.76483 -9.13789 347 ft 4 kts 166°
2026-05-07 12:31 38.76510 -9.13796 350 ft 4 kts 178°
2026-05-07 12:31 38.76529 -9.13792 352 ft 3 kts 249°
2026-05-07 12:31 38.76531 -9.13788 351 ft 1 kts 258°
2026-05-07 12:33 38.76528 -9.13803 355 ft 5 kts 258°
2026-05-07 12:33 38.76517 -9.13877 346 ft 8 kts 258°
2026-05-07 12:34 38.76540 -9.13931 349 ft 8 kts 341°
2026-05-07 12:34 38.76564 -9.13990 348 ft 9 kts 253°
2026-05-07 12:34 38.76530 -9.14052 355 ft 9 kts 229°
2026-05-07 12:34 38.76498 -9.14114 351 ft 8 kts 246°
2026-05-07 12:35 38.76496 -9.14182 347 ft 8 kts 291°
2026-05-07 12:35 38.76525 -9.14268 338 ft 12 kts 292°
2026-05-07 12:35 38.76537 -9.14303 335 ft 0 kts 292°
2026-05-07 12:36 38.76537 -9.14305 335 ft 1 kts 292°
2026-05-07 12:37 38.76549 -9.14341 332 ft 9 kts 292°
2026-05-07 12:37 38.76571 -9.14410 334 ft 5 kts 292°
2026-05-07 12:37 38.76589 -9.14419 331 ft 2 kts 15°
2026-05-07 12:37 38.76593 -9.14417 335 ft 0 kts 24°
2026-05-07 12:38 38.76595 -9.14416 335 ft 2 kts 24°
2026-05-07 12:38 38.76738 -9.14337 335 ft 55 kts 22°
2026-05-07 12:39 38.77311 -9.14034 358 ft 120 kts 22°
2026-05-07 12:39 38.78248 -9.13529 411 ft 169 kts 21°
2026-05-07 12:39 38.79340 -9.12922 1151 ft 168 kts 17°
2026-05-07 12:39 38.80462 -9.12549 1905 ft 170 kts 353°
2026-05-07 12:40 38.81617 -9.13156 2237 ft 196 kts 315°
2026-05-07 12:40 38.82273 -9.14684 2707 ft 207 kts 279°
2026-05-07 12:40 38.82079 -9.16523 3350 ft 215 kts 246°
2026-05-07 12:40 38.81190 -9.18185 3783 ft 237 kts 231°
2026-05-07 12:41 38.80034 -9.19849 4042 ft 267 kts 228°
2026-05-07 12:41 38.78696 -9.21685 4296 ft 296 kts 227°
2026-05-07 12:41 38.77210 -9.23708 4527 ft 324 kts 227°
2026-05-07 12:41 38.75596 -9.25906 4816 ft 347 kts 227°
2026-05-07 12:42 38.73942 -9.28169 5433 ft 357 kts 227°
2026-05-07 12:42 38.72230 -9.30522 6280 ft 360 kts 226°
2026-05-07 12:42 38.70517 -9.32885 7097 ft 362 kts 226°
2026-05-07 12:42 38.68815 -9.35235 7920 ft 364 kts 227°
2026-05-07 12:43 38.67086 -9.37628 8758 ft 365 kts 227°
2026-05-07 12:43 38.65377 -9.39992 9616 ft 366 kts 227°
2026-05-07 12:43 38.63632 -9.42407 10284 ft 371 kts 227°
2026-05-07 12:43 38.61852 -9.44869 10927 ft 375 kts 227°
2026-05-07 12:44 38.60087 -9.47309 11617 ft 378 kts 227°
2026-05-07 12:44 38.58276 -9.49811 12157 ft 385 kts 227°
2026-05-07 12:44 38.56460 -9.52318 12756 ft 390 kts 227°
2026-05-07 12:44 38.54613 -9.54866 13475 ft 391 kts 227°
2026-05-07 12:45 38.52748 -9.57437 14049 ft 396 kts 227°
2026-05-07 12:45 38.50854 -9.60045 14568 ft 401 kts 227°
2026-05-07 12:45 38.48973 -9.62633 15159 ft 403 kts 228°
2026-05-07 12:45 38.47067 -9.65254 15772 ft 404 kts 228°
2026-05-07 12:46 38.45180 -9.67845 16345 ft 406 kts 228°
2026-05-07 12:46 38.43245 -9.70502 16904 ft 409 kts 228°
2026-05-07 12:46 38.41288 -9.73186 17445 ft 412 kts 228°
2026-05-07 12:46 38.39352 -9.75840 17975 ft 414 kts 228°
2026-05-07 12:47 38.37382 -9.78536 18461 ft 417 kts 229°
2026-05-07 12:47 38.35401 -9.81247 18926 ft 418 kts 229°
2026-05-07 12:47 38.33406 -9.83972 19408 ft 420 kts 228°
2026-05-07 12:47 38.31404 -9.86707 19916 ft 420 kts 228°
2026-05-07 12:48 38.29429 -9.89400 20387 ft 422 kts 228°
2026-05-07 12:48 38.27414 -9.92146 20843 ft 424 kts 228°
2026-05-07 12:48 38.25393 -9.94899 21262 ft 426 kts 228°
2026-05-07 12:48 38.23384 -9.97632 21689 ft 428 kts 228°
2026-05-07 12:49 38.21345 -10.00405 22083 ft 429 kts 228°
2026-05-07 12:49 38.19279 -10.03211 22492 ft 431 kts 228°
2026-05-07 12:49 38.17244 -10.05972 22869 ft 433 kts 228°
2026-05-07 12:49 38.15169 -10.08787 23246 ft 435 kts 228°
2026-05-07 12:50 38.13084 -10.11611 23590 ft 437 kts 228°
2026-05-07 12:50 38.11022 -10.14401 23909 ft 439 kts 228°
2026-05-07 12:50 38.08923 -10.17240 24205 ft 440 kts 229°
2026-05-07 12:50 38.06820 -10.20082 24513 ft 441 kts 229°
2026-05-07 12:51 38.04709 -10.22932 24799 ft 443 kts 229°
2026-05-07 12:51 38.02586 -10.25796 25075 ft 445 kts 229°
2026-05-07 12:51 38.00482 -10.28631 25373 ft 446 kts 229°
2026-05-07 12:51 37.98343 -10.31510 25659 ft 447 kts 229°
2026-05-07 12:52 37.96222 -10.34363 25932 ft 449 kts 229°
2026-05-07 12:52 37.94079 -10.37242 26206 ft 450 kts 229°
2026-05-07 12:52 37.91930 -10.40126 26563 ft 448 kts 229°
2026-05-07 12:52 37.89797 -10.42986 26994 ft 446 kts 229°
2026-05-07 12:53 37.87661 -10.45848 27456 ft 443 kts 229°
2026-05-07 12:53 37.85560 -10.48659 27874 ft 441 kts 230°
2026-05-07 12:53 37.83451 -10.51480 28259 ft 440 kts 230°
2026-05-07 12:53 37.81344 -10.54297 28684 ft 438 kts 230°
2026-05-07 12:54 37.79249 -10.57093 29150 ft 436 kts 230°
2026-05-07 12:54 37.77187 -10.59844 29630 ft 433 kts 230°
2026-05-07 12:54 37.75118 -10.62601 30154 ft 428 kts 230°
2026-05-07 12:54 37.73069 -10.65330 30538 ft 426 kts 230°
2026-05-07 12:55 37.71046 -10.68022 30866 ft 425 kts 230°
2026-05-07 12:55 37.69003 -10.70739 30946 ft 426 kts 230°
2026-05-07 12:55 37.64934 -10.76145 30971 ft 424 kts 230°
2026-05-07 12:56 37.60868 -10.81535 30973 ft 424 kts 230°
2026-05-07 12:56 37.56792 -10.86930 30977 ft 424 kts 230°
2026-05-07 12:57 37.52730 -10.92297 30983 ft 426 kts 230°
2026-05-07 12:57 37.48595 -10.97755 30978 ft 431 kts 230°
2026-05-07 12:58 37.44468 -11.03187 30970 ft 431 kts 230°
2026-05-07 12:58 37.40340 -11.08612 30970 ft 430 kts 229°
2026-05-07 12:59 37.36181 -11.14067 30978 ft 430 kts 229°
2026-05-07 12:59 37.32044 -11.19486 30978 ft 430 kts 229°
2026-05-07 13:00 37.27915 -11.24886 30981 ft 430 kts 229°
2026-05-07 13:00 37.23763 -11.30307 30983 ft 430 kts 229°
2026-05-07 13:01 37.19633 -11.35690 30983 ft 429 kts 229°
2026-05-07 13:01 37.15466 -11.41110 30958 ft 428 kts 229°
2026-05-07 13:02 37.11337 -11.46473 30974 ft 428 kts 229°
2026-05-07 13:02 37.07204 -11.51833 30986 ft 428 kts 229°
2026-05-07 13:03 37.03081 -11.57171 30985 ft 428 kts 229°
2026-05-07 13:03 36.98947 -11.62514 30986 ft 428 kts 229°
2026-05-07 13:04 36.94788 -11.67880 30983 ft 428 kts 229°
2026-05-07 13:04 36.90645 -11.73217 30983 ft 428 kts 229°
2026-05-07 13:05 36.86507 -11.78538 30983 ft 428 kts 229°
2026-05-07 13:05 36.82341 -11.83887 30987 ft 428 kts 229°
2026-05-07 13:06 36.78198 -11.89197 30992 ft 429 kts 229°
2026-05-07 13:06 36.74039 -11.94518 30988 ft 429 kts 229°
2026-05-07 13:07 36.69887 -11.99822 30988 ft 429 kts 229°
2026-05-07 13:07 36.65700 -12.05162 30996 ft 429 kts 229°
2026-05-07 13:08 36.61558 -12.10435 30985 ft 427 kts 228°
2026-05-07 13:08 36.57398 -12.15724 30991 ft 426 kts 228°
2026-05-07 13:09 36.53267 -12.20966 30992 ft 426 kts 228°
2026-05-07 13:09 36.49105 -12.26241 30998 ft 426 kts 228°
2026-05-07 13:10 36.44976 -12.31464 30998 ft 426 kts 228°
2026-05-07 13:10 36.40818 -12.36715 30996 ft 426 kts 228°
2026-05-07 13:11 36.36680 -12.41933 31014 ft 425 kts 227°
2026-05-07 13:11 36.32520 -12.47170 30981 ft 424 kts 227°
2026-05-07 13:12 36.28388 -12.52362 30996 ft 424 kts 227°
2026-05-07 13:12 36.24227 -12.57584 31002 ft 424 kts 227°
2026-05-07 13:13 36.20085 -12.62774 30997 ft 425 kts 227°
2026-05-07 13:13 36.15938 -12.67961 31003 ft 425 kts 227°
2026-05-07 13:14 36.11769 -12.73167 31000 ft 425 kts 227°
2026-05-07 13:14 36.07617 -12.78344 31009 ft 425 kts 227°
2026-05-07 13:15 36.03441 -12.83541 30991 ft 424 kts 227°
2026-05-07 13:15 35.99290 -12.88701 31001 ft 424 kts 227°
2026-05-07 13:16 35.95116 -12.93880 31001 ft 424 kts 227°
2026-05-07 13:16 35.90968 -12.99019 31002 ft 424 kts 227°
2026-05-07 13:17 35.87487 -13.03325 31004 ft 424 kts 227°
2026-05-07 13:17 35.83322 -13.08470 31004 ft 424 kts 227°
2026-05-07 13:18 35.79136 -13.13633 31017 ft 424 kts 226°
2026-05-07 13:18 35.74972 -13.18761 30996 ft 424 kts 226°
2026-05-07 13:19 35.70817 -13.23869 31005 ft 423 kts 226°
2026-05-07 13:19 35.66663 -13.28969 31009 ft 423 kts 226°
2026-05-07 13:20 35.62481 -13.34094 31009 ft 423 kts 226°
2026-05-07 13:20 35.58325 -13.39180 31007 ft 423 kts 226°
2026-05-07 13:21 35.54165 -13.44264 31008 ft 423 kts 226°
2026-05-07 13:21 35.49968 -13.49384 31008 ft 423 kts 226°
2026-05-07 13:22 35.45806 -13.54452 31000 ft 421 kts 226°
2026-05-07 13:22 35.41654 -13.59502 31004 ft 420 kts 226°
2026-05-07 13:23 35.37513 -13.64530 31008 ft 420 kts 226°
2026-05-07 13:23 35.33348 -13.69581 31008 ft 420 kts 226°
2026-05-07 13:24 35.29211 -13.74589 31008 ft 419 kts 226°
2026-05-07 13:24 35.25066 -13.79599 31014 ft 419 kts 226°
2026-05-07 13:25 35.20902 -13.84626 31014 ft 419 kts 226°
2026-05-07 13:25 35.16761 -13.89616 31022 ft 419 kts 226°
2026-05-07 13:26 35.12626 -13.94591 31014 ft 418 kts 226°
2026-05-07 13:26 35.08471 -13.99583 31016 ft 417 kts 226°
2026-05-07 13:27 35.04345 -14.04533 31016 ft 417 kts 225°
2026-05-07 13:27 35.00197 -14.09501 31016 ft 417 kts 225°
2026-05-07 13:28 34.96071 -14.14437 31016 ft 417 kts 225°
2026-05-07 13:28 34.91918 -14.19396 31017 ft 417 kts 225°
2026-05-07 13:29 34.87782 -14.24329 31023 ft 416 kts 225°
2026-05-07 13:29 34.83663 -14.29233 31017 ft 415 kts 225°
2026-05-07 13:30 34.79537 -14.34139 31023 ft 414 kts 225°
2026-05-07 13:30 34.75423 -14.39023 31024 ft 414 kts 225°
2026-05-07 13:31 34.71288 -14.43925 31020 ft 414 kts 225°
2026-05-07 13:31 34.67165 -14.48806 31022 ft 414 kts 225°
2026-05-07 13:32 34.63051 -14.53669 31022 ft 414 kts 225°
2026-05-07 13:32 34.58943 -14.58517 31029 ft 413 kts 225°
2026-05-07 13:33 34.54810 -14.63389 31023 ft 413 kts 225°
2026-05-07 13:33 34.50694 -14.68231 31025 ft 413 kts 225°
2026-05-07 13:34 34.44495 -14.75514 31024 ft 413 kts 225°
2026-05-07 13:35 34.40388 -14.80329 31024 ft 413 kts 225°
2026-05-07 13:35 34.36242 -14.85184 31025 ft 413 kts 225°
2026-05-07 13:36 34.32125 -14.89998 31007 ft 413 kts 225°
2026-05-07 13:36 34.27987 -14.94829 31031 ft 413 kts 225°
2026-05-07 13:37 34.23869 -14.99630 31024 ft 412 kts 225°
2026-05-07 13:37 34.19756 -15.04418 31023 ft 412 kts 225°
2026-05-07 13:38 34.15611 -15.09237 31032 ft 412 kts 225°
2026-05-07 13:38 34.11501 -15.14008 31027 ft 411 kts 225°
2026-05-07 13:39 34.07363 -15.18805 31027 ft 411 kts 225°
2026-05-07 13:39 34.03225 -15.23594 31005 ft 411 kts 225°
2026-05-07 13:40 33.99115 -15.28346 31021 ft 411 kts 225°
2026-05-07 13:40 33.94975 -15.33124 31033 ft 411 kts 225°
2026-05-07 13:41 33.90849 -15.37880 31032 ft 412 kts 225°
2026-05-07 13:41 33.86693 -15.42663 31032 ft 412 kts 225°
2026-05-07 13:42 33.82556 -15.47418 30965 ft 412 kts 225°
2026-05-07 13:42 33.80485 -15.49797 30692 ft 409 kts 225°
2026-05-07 13:42 33.78456 -15.52124 30456 ft 406 kts 225°
2026-05-07 13:42 33.76405 -15.54476 30225 ft 407 kts 225°
2026-05-07 13:43 33.74336 -15.56847 29975 ft 409 kts 224°
2026-05-07 13:43 33.72294 -15.59186 29653 ft 411 kts 225°
2026-05-07 13:43 33.70220 -15.61559 29386 ft 412 kts 225°
2026-05-07 13:43 33.68137 -15.63940 29112 ft 414 kts 225°
2026-05-07 13:44 33.66066 -15.66308 28889 ft 414 kts 225°
2026-05-07 13:44 33.63971 -15.68700 28159 ft 414 kts 225°
2026-05-07 13:44 33.61873 -15.71095 27311 ft 413 kts 225°
2026-05-07 13:44 33.59805 -15.73454 26416 ft 414 kts 225°
2026-05-07 13:45 33.57712 -15.75839 25652 ft 412 kts 225°
2026-05-07 13:45 33.55638 -15.78199 25018 ft 407 kts 225°
2026-05-07 13:45 33.53599 -15.80555 24363 ft 409 kts 225°
2026-05-07 13:45 33.51563 -15.82941 23700 ft 415 kts 226°
2026-05-07 13:46 33.49513 -15.85354 22934 ft 409 kts 226°
2026-05-07 13:46 33.47515 -15.87704 22246 ft 402 kts 226°
2026-05-07 13:46 33.45522 -15.90045 21610 ft 397 kts 226°
2026-05-07 13:46 33.43536 -15.92375 20941 ft 398 kts 226°
2026-05-07 13:47 33.41577 -15.94669 20346 ft 398 kts 226°
2026-05-07 13:47 33.39593 -15.96990 19776 ft 395 kts 226°
2026-05-07 13:47 33.37639 -15.99272 19096 ft 390 kts 226°
2026-05-07 13:47 33.35729 -16.01500 18492 ft 385 kts 227°
2026-05-07 13:48 33.33811 -16.03737 17807 ft 382 kts 227°
2026-05-07 13:48 33.31919 -16.05943 17157 ft 377 kts 226°
2026-05-07 13:48 33.30046 -16.08124 16556 ft 371 kts 226°
2026-05-07 13:48 33.28222 -16.10248 15929 ft 367 kts 226°
2026-05-07 13:49 33.26389 -16.12380 15328 ft 363 kts 226°
2026-05-07 13:49 33.24605 -16.14456 14755 ft 359 kts 226°
2026-05-07 13:49 33.22818 -16.16532 14187 ft 354 kts 226°
2026-05-07 13:49 33.21072 -16.18561 13606 ft 351 kts 226°
2026-05-07 13:50 33.19332 -16.20580 13013 ft 347 kts 226°
2026-05-07 13:50 33.17609 -16.22580 12445 ft 343 kts 226°
2026-05-07 13:50 33.15897 -16.24565 11880 ft 340 kts 226°
2026-05-07 13:50 33.14200 -16.26532 11329 ft 340 kts 226°
2026-05-07 13:51 33.12513 -16.28486 10779 ft 342 kts 226°
2026-05-07 13:51 33.10793 -16.30479 10243 ft 348 kts 226°
2026-05-07 13:51 33.09015 -16.32539 9650 ft 361 kts 226°
2026-05-07 13:51 33.07204 -16.34634 9038 ft 362 kts 226°
2026-05-07 13:52 33.05420 -16.36693 8487 ft 357 kts 226°
2026-05-07 13:52 33.03643 -16.38743 7992 ft 352 kts 226°
2026-05-07 13:52 33.01923 -16.40726 7872 ft 336 kts 226°
2026-05-07 13:52 33.00272 -16.42628 7731 ft 323 kts 226°
2026-05-07 13:53 32.98678 -16.44467 7588 ft 312 kts 226°
2026-05-07 13:53 32.97166 -16.46210 7460 ft 301 kts 226°
2026-05-07 13:53 32.95679 -16.47924 7335 ft 291 kts 226°
2026-05-07 13:53 32.94257 -16.49559 7222 ft 282 kts 226°
2026-05-07 13:54 32.92868 -16.51157 7110 ft 273 kts 226°
2026-05-07 13:54 32.91488 -16.52672 6987 ft 265 kts 224°
2026-05-07 13:54 32.90126 -16.54115 6715 ft 264 kts 224°
2026-05-07 13:54 32.88759 -16.55564 6561 ft 258 kts 224°
2026-05-07 13:55 32.87439 -16.56966 6443 ft 251 kts 224°
2026-05-07 13:55 32.86147 -16.58340 6322 ft 244 kts 224°
2026-05-07 13:55 32.84910 -16.59660 6117 ft 241 kts 224°
2026-05-07 13:55 32.83662 -16.60991 5881 ft 239 kts 224°
2026-05-07 13:56 32.82399 -16.62291 5636 ft 239 kts 219°
2026-05-07 13:56 32.80982 -16.63328 5408 ft 239 kts 208°
2026-05-07 13:56 32.79447 -16.64035 5196 ft 239 kts 200°
2026-05-07 13:56 32.77888 -16.64649 5091 ft 232 kts 201°
2026-05-07 13:57 32.76381 -16.65257 4998 ft 224 kts 201°
2026-05-07 13:57 32.74947 -16.65837 4921 ft 211 kts 201°
2026-05-07 13:57 32.73602 -16.66382 4750 ft 202 kts 201°
2026-05-07 13:57 32.72295 -16.66912 4585 ft 194 kts 201°
2026-05-07 13:58 32.71034 -16.67425 4380 ft 189 kts 201°
2026-05-07 13:58 32.69794 -16.67928 4175 ft 187 kts 201°
2026-05-07 13:58 32.68569 -16.68425 3982 ft 187 kts 200°
2026-05-07 13:58 32.67341 -16.68923 3781 ft 184 kts 201°
2026-05-07 13:59 32.66150 -16.69405 3593 ft 176 kts 200°
2026-05-07 13:59 32.65009 -16.69866 3409 ft 173 kts 200°
2026-05-07 13:59 32.63872 -16.70337 3213 ft 170 kts 204°
2026-05-07 13:59 32.62880 -16.70954 3000 ft 157 kts 219°
2026-05-07 14:00 32.62095 -16.71833 2856 ft 156 kts 232°
2026-05-07 14:00 32.61474 -16.72897 2704 ft 159 kts 242°
2026-05-07 14:00 32.61049 -16.74096 2530 ft 159 kts 254°
2026-05-07 14:00 32.60854 -16.75377 2331 ft 157 kts 265°
2026-05-07 14:01 32.60899 -16.76673 2132 ft 156 kts 277°
2026-05-07 14:01 32.61173 -16.77911 1890 ft 159 kts 290°
2026-05-07 14:01 32.61751 -16.79015 1749 ft 159 kts 308°
2026-05-07 14:01 32.62610 -16.79855 1502 ft 160 kts 328°
2026-05-07 14:02 32.63642 -16.80304 1289 ft 159 kts 347°
2026-05-07 14:02 32.64741 -16.80368 1087 ft 157 kts 358°
2026-05-07 14:02 32.65827 -16.80360 896 ft 155 kts 359°
2026-05-07 14:02 32.66882 -16.80229 677 ft 153 kts 14°
2026-05-07 14:03 32.67834 -16.79700 484 ft 150 kts 36°
2026-05-07 14:03 32.68586 -16.78856 320 ft 147 kts 45°
2026-05-07 14:03 32.69315 -16.77999 170 ft 142 kts 45°
2026-05-07 14:03 32.69891 -16.77321 195 ft 88 kts 44°
2026-05-07 14:04 32.70164 -16.77019 187 ft 11 kts 21°
2026-05-07 14:04 32.70176 -16.76990 189 ft 2 kts 161°
2026-05-07 14:04 32.70160 -16.77002 191 ft 7 kts 224°
2026-05-07 14:04 32.70083 -16.77100 187 ft 18 kts 226°
2026-05-07 14:05 32.69973 -16.77179 194 ft 19 kts 183°
2026-05-07 14:05 32.69886 -16.77176 185 ft 16 kts 179°
2026-05-07 14:05 32.69808 -16.77214 181 ft 11 kts 229°
2026-05-07 14:05 32.69745 -16.77293 173 ft 16 kts 225°
2026-05-07 14:06 32.69675 -16.77378 168 ft 10 kts 226°
2026-05-07 14:06 32.69626 -16.77439 168 ft 10 kts 226°
2026-05-07 14:06 32.69578 -16.77498 168 ft 8 kts 226°
2026-05-07 14:06 32.69553 -16.77529 168 ft 5 kts 227°
2026-05-07 14:07 32.69530 -16.77558 168 ft 5 kts 225°
2026-05-07 14:07 32.69500 -16.77554 150 ft 5 kts 141°
2026-05-07 14:07 32.69476 -16.77527 168 ft 4 kts 137°
2026-05-07 14:07 32.69471 -16.77522 168 ft 0 kts 138°